User: anonymous   Login
Location: Unspecified
(0.0000°N, 0.0000°E)
Time: 06:37:56
(UTC+00:00)
Language:

STARLINK-4584 - Orbit

View from above orbital plane
View from above orbital plane
View from above satellite
View from above satellite

Ground track
Ground track

The orbit is defined by the following mean orbital elements,

1 53571U          26145.51314111 +.00000000 +00000-0 +21402-4 0 00002
2 53571  53.2126  69.1939 0001123  75.1450 284.9666 15.08839687    04
Epoch (UTC): 25 May 2026 12:18:55
Eccentricity: 0.0001123
inclination: 53.2126°
perigee height: 539 km
apogee height: 541 km
right ascension of ascending node: 69.1939°
argument of perigee: 75.1450°
revolutions per day: 15.08839687
mean anomaly at epoch: 284.9666°

The dashed part of the orbit path shows where the satellite is in the earth's shadow,  

DLR